GW5264 Weather Reports


time (UTC)temp
C
wind
direction
speed
KPH
gust
KPH
rain 1hr
cm
rain 24hr
cm
rain mn
cm
humidity
%
barometer
mb
20260502170459 11 181 0.0 1.6 0.00 0.00 0.00 49 1018.0
20260502163943 11 120 0.0 6.4 0.00 0.00 0.00 46 1018.0
20260502163438 13 177 8.0 12.9 0.00 0.00 0.00 43 1018.1
20260502162937 12 50 1.6 3.2 0.00 0.00 0.00 56 1018.2
20260502162433 11 93 1.6 4.8 0.00 0.00 0.00 48 1018.3
20260502161930 11 71 9.7 12.9 0.00 0.00 0.00 49 1018.2
20260502161426 11 351 0.0 3.2 0.00 0.00 0.00 46 1018.3
20260502160924 11 224 3.2 4.8 0.00 0.00 0.00 53 1018.3
20260502160422 11 263 3.2 4.8 0.00 0.00 0.00 50 1018.4
20260502151901 12 209 6.4 9.7 0.00 0.00 0.00 49 1018.5
20260502151357 12 253 4.8 4.8 0.00 0.00 0.00 55 1018.6
20260502150855 11 252 1.6 4.8 0.00 0.00 0.00 51 1018.6
20260502150351 12 316 3.2 6.4 0.00 0.00 0.00 61 1018.6
20260502130739 6 35 1.6 3.2 0.00 0.00 0.00 92 1019.1
20260502130237 6 35 1.6 3.2 0.00 0.00 0.00 92 1018.7
20260502123723 5 35 0.0 0.0 0.00 0.00 0.00 95 1018.9
20260502123219 5 35 0.0 0.0 0.00 0.00 0.00 96 1018.8
20260502122716 5 35 0.0 0.0 0.00 0.00 0.00 96 1018.7
20260502122212 5 35 0.0 0.0 0.00 0.00 0.00 97 1018.9
20260502121711 4 35 0.0 0.0 0.00 0.00 0.00 98 1019.0
20260502121208 4 35 0.0 0.0 0.00 0.00 0.00 98 1019.1
20260502120704 4 35 0.0 0.0 0.00 0.00 0.00 98 1019.0
20260502120201 4 35 0.0 0.0 0.00 0.00 0.00 98 1018.9
20260502115659 4 35 0.0 0.0 0.00 0.00 0.00 99 1019.0
20260502115155 4 35 0.0 0.0 0.00 0.00 0.00 99 1019.3
20260502114651 4 35 0.0 0.0 0.00 0.00 0.00 99 1018.9
20260502114149 4 35 0.0 0.0 0.00 0.00 0.00 99 1018.7
20260502113646 3 35 0.0 0.0 0.00 0.00 0.00 99 1018.8
20260502113144 4 35 0.0 0.0 0.00 0.00 0.00 99 1018.6
20260502112642 3 35 0.0 0.0 0.00 0.00 0.00 99 1018.8
20260502112139 3 35 0.0 0.0 0.00 0.00 0.00 99 1018.7
20260502111636 3 35 0.0 0.0 0.00 0.00 0.00 99 1018.8
20260502111134 3 35 0.0 0.0 0.00 0.00 0.00 99 1018.7
20260502110631 3 35 0.0 0.0 0.00 0.00 0.00 99 1018.6
20260502110128 3 35 0.0 0.0 0.00 0.00 0.00 99 1018.7
20260502105626 3 35 0.0 0.0 0.00 0.00 0.00 99 1018.6
20260502105123 3 35 0.0 0.0 0.00 0.00 0.00 99 1018.6
20260502104620 3 35 0.0 0.0 0.00 0.00 0.00 99 1018.6
20260502104117 3 35 0.0 0.0 0.00 0.00 0.00 99 1018.4
20260502103615 3 35 0.0 0.0 0.00 0.00 0.00 99 1018.7
20260502103113 3 35 0.0 0.0 0.00 0.00 0.00 99 1018.9
20260502102609 3 35 0.0 1.6 0.00 0.00 0.00 99 1018.9
20260502102106 3 35 0.0 0.0 0.00 0.00 0.00 99 1019.0
20260502101604 3 35 0.0 0.0 0.00 0.00 0.00 99 1019.0
20260502101102 3 35 0.0 0.0 0.00 0.00 0.00 99 1018.9
20260502100600 3 35 0.0 0.0 0.00 0.00 0.00 99 1018.8
20260502091032 3 35 0.0 0.0 0.00 0.00 0.00 98 1019.1
20260502090529 3 35 0.0 0.0 0.00 0.00 0.00 98 1018.9
20260502071424 5 35 0.0 0.0 0.00 0.00 0.00 94 1018.6
20260502070922 5 35 0.0 0.0 0.00 0.00 0.00 94 1018.6
20260502070420 5 35 0.0 0.0 0.00 0.00 0.00 93 1018.4
20260502065918 5 35 0.0 0.0 0.00 0.00 0.00 93 1018.5
20260502065416 5 35 0.0 0.0 0.00 0.00 0.00 92 1018.4
20260502064914 5 35 0.0 0.0 0.00 0.00 0.00 92 1018.6
20260502064411 5 35 0.0 0.0 0.00 0.00 0.00 92 1018.5
20260502063908 5 35 0.0 0.0 0.00 0.00 0.00 91 1018.4
20260502063406 5 35 0.0 3.2 0.00 0.00 0.00 91 1018.5
20260502062903 5 2 0.0 1.6 0.00 0.00 0.00 91 1018.7
20260502062400 5 318 0.0 1.6 0.00 0.00 0.00 90 1018.6
20260502061859 6 356 0.0 1.6 0.00 0.00 0.00 89 1018.6
20260502061357 6 338 1.6 3.2 0.00 0.00 0.00 88 1018.5
20260502060852 6 346 1.6 1.6 0.00 0.00 0.00 88 1018.5
20260502060347 6 351 0.0 0.0 0.00 0.00 0.00 87 1018.6
20260502055845 6 328 1.6 1.6 0.00 0.00 0.00 86 1018.8
20260502055343 6 327 1.6 1.6 0.00 0.00 0.00 85 1018.6
20260502054842 7 12 1.6 1.6 0.00 0.00 0.00 84 1018.8
20260502054339 7 49 1.6 1.6 0.00 0.00 0.00 83 1018.8
20260502053837 7 39 3.2 3.2 0.00 0.00 0.00 83 1018.7
20260502053334 7 335 1.6 1.6 0.00 0.00 0.00 81 1018.7
20260502052831 7 44 3.2 4.8 0.00 0.00 0.00 81 1018.7
20260502052329 7 26 0.0 0.0 0.00 0.00 0.00 81 1018.8
20260502051827 7 46 0.0 0.0 0.00 0.00 0.00 80 1018.7
20260502051326 8 47 0.0 1.6 0.00 0.00 0.00 78 1018.6
20260502050821 8 46 0.0 0.0 0.00 0.00 0.00 79 1018.8
20260502050318 8 47 0.0 1.6 0.00 0.00 0.00 77 1018.6
20260502045815 8 43 1.6 1.6 0.00 0.00 0.00 77 1018.6
20260502045312 8 35 0.0 1.6 0.00 0.00 0.00 77 1018.6
20260502044809 8 51 1.6 3.2 0.00 0.00 0.00 75 1018.6
20260502044305 8 30 0.0 0.0 0.00 0.00 0.00 75 1018.7
20260502043802 9 26 1.6 1.6 0.00 0.00 0.00 75 1018.8
20260502043259 9 26 0.0 1.6 0.00 0.00 0.00 72 1018.8
20260502042759 9 48 1.6 9.7 0.00 0.00 0.00 68 1018.9
20260502042256 9 325 0.0 0.0 0.00 0.00 0.00 73 1018.8
20260502041754 10 65 0.0 3.2 0.00 0.00 0.00 70 1018.8
20260502041251 10 320 1.6 1.6 0.00 0.00 0.00 71 1018.8
20260502040748 10 44 0.0 9.7 0.00 0.00 0.00 69 1018.7
20260502040245 10 327 0.0 0.0 0.00 0.00 0.00 70 1018.6
20260502035741 10 334 0.0 0.0 0.00 0.00 0.00 68 1018.5
20260502035238 10 336 0.0 1.6 0.00 0.00 0.00 69 1018.6
20260502034735 10 347 0.0 1.6 0.00 0.00 0.00 71 1018.8
20260502034233 10 10 1.6 6.4 0.00 0.00 0.00 68 1018.7
20260502033731 10 22 0.0 1.6 0.00 0.00 0.00 70 1018.7
20260502033229 10 317 0.0 1.6 0.00 0.00 0.00 72 1018.7
20260502032725 10 304 3.2 3.2 0.00 0.00 0.00 69 1018.6
20260502032221 10 310 3.2 3.2 0.00 0.00 0.00 71 1018.7
20260502031719 10 37 1.6 3.2 0.00 0.00 0.00 75 1018.6
20260502031217 11 321 1.6 3.2 0.00 0.00 0.00 71 1018.8
20260502030716 11 332 3.2 3.2 0.00 0.00 0.00 73 1018.7
20260502030214 11 315 3.2 4.8 0.00 0.00 0.00 71 1018.6
20260502025710 11 318 3.2 6.4 0.00 0.00 0.00 72 1018.3
20260502025208 11 279 3.2 3.2 0.00 0.00 0.00 73 1018.4
20260502024705 11 85 3.2 3.2 0.00 0.00 0.00 74 1018.3
20260502024204 11 86 1.6 1.6 0.00 0.00 0.00 73 1018.5
20260502023701 11 86 1.6 1.6 0.00 0.00 0.00 73 1018.3
20260502023158 11 85 1.6 3.2 0.00 0.00 0.00 74 1018.4
20260502022655 11 211 1.6 3.2 0.00 0.00 0.00 73 1018.2
20260502022152 11 236 3.2 4.8 0.00 0.00 0.00 73 1018.4
20260502021649 11 276 0.0 0.0 0.00 0.00 0.00 72 1018.1
20260502021146 11 276 3.2 4.8 0.00 0.00 0.00 71 1018.1
20260502020644 11 253 1.6 12.9 0.00 0.00 0.00 70 1017.6
20260502020140 11 324 1.6 3.2 0.00 0.00 0.00 71 1017.8
20260502015638 11 81 3.2 3.2 0.00 0.00 0.00 71 1017.6
20260502015134 11 50 6.4 9.7 0.00 0.00 0.00 75 1017.6
20260502014632 11 52 0.0 1.6 0.00 0.00 0.00 75 1017.5
20260502014129 11 53 0.0 0.0 0.00 0.00 0.00 77 1017.3
20260502013625 11 53 0.0 0.0 0.00 0.00 0.00 77 1017.3
20260502013120 11 53 0.0 0.0 0.00 0.00 0.00 76 1017.4
20260502012618 11 53 0.0 0.0 0.00 0.00 0.00 76 1017.1
20260502012116 11 53 0.0 0.0 0.00 0.00 0.00 77 1017.2
20260502011613 11 53 0.0 0.0 0.00 0.00 0.00 76 1017.1
20260502011108 11 53 0.0 0.0 0.00 0.00 0.00 74 1017.1
20260502010606 11 53 0.0 0.0 0.00 0.00 0.00 71 1017.1
20260502005600 11 53 0.0 1.6 0.00 0.00 0.00 71 1017.0
20260502005058 11 52 1.6 1.6 0.00 0.00 0.00 72 1016.6
20260502004553 12 52 0.0 0.0 0.00 0.00 0.00 68 1016.6
20260502004050 12 52 1.6 3.2 0.00 0.00 0.00 65 1016.4
20260502003548 12 338 1.6 3.2 0.00 0.00 0.00 66 1016.4
20260502003045 12 308 3.2 4.8 0.00 0.00 0.00 67 1016.3
20260502002541 12 48 3.2 4.8 0.00 0.00 0.00 65 1016.6
20260502002038 12 20 3.2 3.2 0.00 0.00 0.00 66 1016.4
20260502001536 12 2 1.6 3.2 0.00 0.00 0.00 66 1016.2
20260502001033 12 204 3.2 6.4 0.00 0.00 0.00 63 1016.1
20260502000532 12 85 3.2 3.2 0.00 0.00 0.00 63 1016.0
20260502000028 12 68 4.8 14.5 0.00 0.00 0.00 61 1015.6
20260501235524 13 21 8.0 17.7 0.00 0.00 0.00 61 1015.7
20260501235020 13 348 3.2 4.8 0.00 0.00 0.00 63 1015.2
20260501234516 13 43 0.0 1.6 0.00 0.00 0.00 65 1015.4
20260501234014 13 319 0.0 4.8 0.00 0.00 0.00 63 1015.3
20260501233512 13 160 0.0 4.8 0.00 0.00 0.00 60 1014.8
20260501233008 13 73 1.6 6.4 0.00 0.00 0.00 62 1014.7
20260501232504 13 223 1.6 9.7 0.00 0.00 0.00 62 1014.8
20260501232002 13 178 1.6 1.6 0.00 0.00 0.00 67 1014.7
20260501231500 13 178 0.0 3.2 0.00 0.00 0.00 69 1014.9
20260501230958 13 326 0.0 1.6 0.00 0.00 0.00 71 1014.9
20260501230457 13 319 3.2 3.2 0.00 0.00 0.00 68 1014.8
20260501225954 13 350 1.6 3.2 0.00 0.00 0.00 69 1015.0
20260501225451 13 339 0.0 3.2 0.00 0.00 0.00 68 1014.8
20260501224947 13 307 1.6 6.4 0.00 0.00 0.00 67 1014.8
20260501224445 13 255 3.2 6.4 0.00 0.00 0.00 67 1014.9
20260501223942 14 100 1.6 3.2 0.00 0.00 0.00 65 1014.9
20260501223438 14 256 6.4 11.3 0.00 0.00 0.00 64 1014.6
20260501222933 14 304 4.8 4.8 0.00 0.00 0.00 63 1014.6
20260501222431 15 161 8.0 12.9 0.00 0.00 0.00 61 1014.5
20260501221927 15 288 4.8 11.3 0.00 0.00 0.00 59 1014.2
20260501221424 16 151 0.0 0.0 0.00 0.00 0.00 56 1014.2
20260501220922 15 151 1.6 3.2 0.00 0.00 0.00 57 1014.4
20260501220420 15 31 1.6 3.2 0.00 0.00 0.00 58 1014.5
20260501215915 15 136 3.2 3.2 0.00 0.00 0.00 59 1014.1
20260501215412 16 357 3.2 16.1 0.00 0.00 0.00 55 1014.2
20260501214908 16 325 1.6 4.8 0.00 0.00 0.00 58 1013.9
20260501214403 16 297 3.2 11.3 0.00 0.00 0.00 53 1014.0
20260501213859 16 317 4.8 6.4 0.00 0.00 0.00 52 1013.7
20260501213356 16 156 4.8 6.4 0.00 0.00 0.00 51 1013.4
20260501212851 17 82 1.6 9.7 0.00 0.00 0.00 48 1013.2
20260501212348 17 312 4.8 4.8 0.00 0.00 0.00 53 1013.2
20260501211845 17 241 3.2 3.2 0.00 0.00 0.00 44 1013.2
20260501211342 17 218 1.6 1.6 0.00 0.00 0.00 45 1013.1
20260501210839 18 238 4.8 4.8 0.00 0.00 0.00 42 1013.2
20260501210337 17 117 1.6 6.4 0.00 0.00 0.00 42 1013.3
20260501205833 17 48 4.8 9.7 0.00 0.00 0.00 44 1013.2
20260501205330 18 312 0.0 1.6 0.00 0.00 0.00 39 1013.0
20260501204826 18 251 3.2 11.3 0.00 0.00 0.00 38 1012.8
20260501204323 18 66 3.2 6.4 0.00 0.00 0.00 40 1012.9
20260501203819 19 250 6.4 14.5 0.00 0.00 0.00 37 1012.7
20260501203317 20 135 3.2 14.5 0.00 0.00 0.00 35 1012.6
20260501202814 19 76 6.4 11.3 0.00 0.00 0.00 35 1012.8
20260501202310 18 141 4.8 6.4 0.00 0.00 0.00 36 1012.7
20260501201808 18 161 4.8 14.5 0.00 0.00 0.00 33 1012.6
20260501201304 19 126 4.8 4.8 0.00 0.00 0.00 32 1012.4
20260501200800 20 37 3.2 6.4 0.00 0.00 0.00 31 1012.6
20260501200258 20 171 4.8 11.3 0.00 0.00 0.00 30 1012.6
20260501195755 20 156 1.6 12.9 0.00 0.00 0.00 36 1012.5
20260501195251 20 138 8.0 12.9 0.00 0.00 0.00 31 1012.6
20260501194747 20 218 3.2 11.3 0.00 0.00 0.00 30 1012.6
20260501194243 20 238 4.8 22.5 0.00 0.00 0.00 32 1012.8
20260501193740 20 191 4.8 9.7 0.00 0.00 0.00 31 1012.9
20260501193238 20 147 6.4 14.5 0.00 0.00 0.00 29 1012.8
20260501192735 20 266 1.6 11.3 0.00 0.00 0.00 27 1013.0
20260501192232 20 144 3.2 3.2 0.00 0.00 0.00 29 1012.9
20260501191730 20 232 4.8 6.4 0.00 0.00 0.00 28 1012.7
20260501191227 20 78 3.2 4.8 0.00 0.00 0.00 27 1013.0
20260501190723 19 209 8.0 12.9 0.00 0.00 0.00 27 1013.2
20260501190219 19 250 6.4 12.9 0.00 0.00 0.00 28 1013.4
20260501185715 19 138 3.2 6.4 0.00 0.00 0.00 29 1013.0
20260501185211 20 242 9.7 16.1 0.00 0.00 0.00 27 1013.5
20260501184707 20 257 3.2 14.5 0.00 0.00 0.00 27 1013.6
20260501184202 20 260 4.8 12.9 0.00 0.00 0.00 32 1013.4
20260501183659 20 161 4.8 11.3 0.00 0.00 0.00 24 1013.1
20260501183155 20 202 4.8 6.4 0.00 0.00 0.00 30 1013.2
20260501182652 20 272 3.2 12.9 0.00 0.00 0.00 28 1013.2
20260501182148 20 132 4.8 9.7 0.00 0.00 0.00 25 1013.3
20260501181646 19 120 9.7 14.5 0.00 0.00 0.00 25 1013.4
20260501181142 19 97 4.8 9.7 0.00 0.00 0.00 26 1013.1
20260501180641 19 211 3.2 9.7 0.00 0.00 0.00 31 1013.7
20260501180137 19 289 4.8 9.7 0.00 0.00 0.00 28 1013.4
20260501175633 19 50 6.4 6.4 0.00 0.00 0.00 31 1013.5
20260501175131 19 247 1.6 4.8 0.00 0.00 0.00 26 1013.6
20260501174627 20 239 3.2 6.4 0.00 0.00 0.00 27 1013.6
20260501174125 20 61 6.4 9.7 0.00 0.00 0.00 27 1013.6
20260501173622 20 261 0.0 4.8 0.00 0.00 0.00 35 1013.6
20260501173119 19 261 0.0 3.2 0.00 0.00 0.00 38 1013.6
20260501172615 18 259 0.0 4.8 0.00 0.00 0.00 30 1013.7
20260501172110 18 226 6.4 12.9 0.00 0.00 0.00 30 1013.7
20260501171606 19 337 3.2 6.4 0.00 0.00 0.00 31 1013.6